time_stamp(utc),avg(mph),gust(mph),direction(deg),12m_air_temp(f),sonic_u(cm/s),sonic_v(cm/s),sonic_w(cm/s),pressure,2m_air_temp(f),pyranometer(W/m^2)
"2018-06-12 00:02:07+00",14.0,15.0,,60.1,616,95,43,1019.32,60,0
"2018-06-12 00:07:07+00",14.4,16.4,,60,641,75,37,1019.34,59.9,0
"2018-06-12 00:12:07+00",14.6,15.6,,60,655,39,20,1019.38,59.8,0
"2018-06-12 00:17:07+00",16.1,18.1,,60,722,27,30,1019.42,59.8,0
"2018-06-12 00:22:07+00",14.9,16.9,,60,663,43,32,1019.5,59.8,0
"2018-06-12 00:27:07+00",15.0,17.0,,60,656,114,36,1019.6,59.8,0
"2018-06-12 00:32:07+00",14.3,16.3,,60,642,18,30,1019.61,59.8,0
"2018-06-12 00:37:07+00",14.6,16.6,,60,655,52,31,1019.69,59.7,0
"2018-06-12 00:42:07+00",12.2,14.2,,60,532,81,49,1019.81,59.6,0
"2018-06-12 00:47:07+00",13.5,15.5,,59.9,590,104,41,1019.78,59.5,0
"2018-06-12 00:52:07+00",14.9,16.9,,59.9,651,199,42,1019.83,59.4,0
"2018-06-12 00:57:07+00",12.2,14.2,,59.8,534,107,34,1019.9,59.4,0
"2018-06-12 01:02:07+00",13.6,15.6,,59.8,605,61,28,1019.94,59.3,0
"2018-06-12 01:07:07+00",13.8,14.8,,59.8,597,153,30,1019.96,59.3,0
"2018-06-12 01:12:07+00",14.7,16.7,,59.8,647,117,38,1020.02,59.1,0
"2018-06-12 01:17:07+00",10.8,12.8,,59.8,482,52,33,1020.18,59.1,0
"2018-06-12 01:22:07+00",13.6,14.6,,59.7,605,44,26,1020.2,59,0
"2018-06-12 01:27:07+00",12.8,14.8,,59.7,573,16,30,1020.24,58.9,0
"2018-06-12 01:32:07+00",13.0,14.0,,59.6,575,82,20,1020.26,58.9,0
"2018-06-12 01:37:07+00",12.9,14.9,,59.6,573,47,25,1020.18,58.9,0
"2018-06-12 01:42:07+00",15.5,16.5,,59.6,694,-16,21,1020.26,58.9,0
"2018-06-12 01:47:07+00",12.7,14.7,,59.5,569,-6,4,1020.4,58.9,0
"2018-06-12 01:52:07+00",11.3,13.3,,59.4,497,-19,16,1020.49,58.8,0
"2018-06-12 01:57:07+00",13.6,14.6,,59.4,611,-44,8,1020.61,58.7,0
"2018-06-12 02:02:07+00",13.3,14.3,,59.4,598,11,11,1020.67,58.7,0
"2018-06-12 02:07:07+00",14.5,15.5,,59.4,645,-2,15,1020.77,58.8,0
"2018-06-12 02:12:07+00",13.5,15.5,,59.3,595,-97,6,1020.67,58.7,0
"2018-06-12 02:17:07+00",14.3,16.3,,59.2,632,-96,4,1020.68,58.6,0
"2018-06-12 02:22:07+00",14.2,16.2,,59.1,614,-157,0,1020.72,58.6,0
"2018-06-12 02:27:07+00",11.1,13.1,,59,476,-107,14,1020.87,58.5,0
"2018-06-12 02:32:07+00",12.4,14.4,,59.1,516,-189,-1,1020.85,58.5,0
"2018-06-12 02:37:07+00",12.8,14.8,,59,543,-167,3,1020.77,58.5,0
"2018-06-12 02:42:07+00",15.4,16.4,,59.1,651,-205,-6,1020.8,58.5,0
"2018-06-12 02:47:07+00",15.2,17.2,,59.1,612,-279,-3,1020.73,58.5,0
"2018-06-12 02:52:07+00",13.6,15.6,,59.1,574,-197,-12,1020.83,58.5,0
"2018-06-12 02:57:07+00",14.4,17.4,,59.2,602,-205,2,1020.93,58.5,0
"2018-06-12 03:02:07+00",13.4,14.4,,59.1,568,-171,-5,1021.02,58.5,0
"2018-06-12 03:07:07+00",14.9,16.9,,59.2,607,-267,-1,1021.11,58.5,0
"2018-06-12 03:12:07+00",11.7,12.7,,59.2,485,-190,7,1021.23,58.5,0
"2018-06-12 03:17:07+00",12.3,14.3,,59.2,501,-216,8,1021.24,58.5,0
"2018-06-12 03:22:07+00",10.2,12.2,,59.3,427,-137,-3,1021.41,58.6,0
"2018-06-12 03:27:07+00",11.6,12.6,,59.2,481,-159,0,1021.47,58.5,0
"2018-06-12 03:32:07+00",12.0,13.0,,59.2,497,-183,0,1021.49,58.4,0
"2018-06-12 03:37:07+00",11.4,12.4,,59.4,480,-156,1,1021.49,58.5,0
"2018-06-12 03:42:07+00",9.2,10.2,,59.4,385,-128,1,1021.54,58.5,0
"2018-06-12 03:47:07+00",11.2,13.2,,59.3,475,-153,5,1021.51,58.4,0
"2018-06-12 03:52:07+00",11.4,12.4,,59.5,448,-236,-1,1021.55,58.4,0
"2018-06-12 03:57:07+00",11.2,12.2,,59.5,459,-213,1,1021.55,58.5,0
"2018-06-12 04:02:07+00",11.6,12.6,,59.6,474,-191,3,1021.55,58.5,0
"2018-06-12 04:07:07+00",9.7,10.7,,59.3,410,-130,-10,1021.66,58.4,0
"2018-06-12 04:12:07+00",9.7,10.7,,59.6,409,-126,-6,1021.77,58.4,0
"2018-06-12 04:17:07+00",8.1,9.1,,59.4,353,-69,3,1021.75,58.3,0
"2018-06-12 04:22:07+00",10.8,11.8,,59.5,465,-112,2,1021.7,58.1,0
"2018-06-12 04:27:07+00",8.3,9.3,,59.4,363,-25,9,1021.88,58,0
"2018-06-12 04:32:07+00",9.9,10.9,,59.7,435,-53,20,1021.87,58,0
"2018-06-12 04:37:07+00",9.9,10.9,,59.7,439,-41,15,1021.84,58,0
"2018-06-12 04:42:07+00",8.2,9.2,,59.5,355,-43,8,1021.78,57.9,0
"2018-06-12 04:47:07+00",7.5,8.5,,59.5,330,7,16,1021.74,57.9,0
"2018-06-12 04:52:07+00",7.9,8.9,,59.4,345,-2,17,1021.77,57.7,0
"2018-06-12 04:57:07+00",7.2,8.2,,59.6,315,-15,13,1021.76,57.5,0
"2018-06-12 05:02:07+00",7.7,8.7,,59.6,334,-54,5,1021.7,57.4,0
"2018-06-12 05:07:07+00",8.2,9.2,,59.6,345,-105,4,1021.69,57.4,0
"2018-06-12 05:12:07+00",8.3,10.3,,59.4,365,-31,13,1021.66,57.2,0
"2018-06-12 05:17:07+00",8.8,9.8,,59.3,382,-62,13,1021.63,57.2,0
"2018-06-12 05:22:07+00",7.1,8.1,,59.5,306,-71,2,1021.6,57.3,0
"2018-06-12 05:27:07+00",7.7,7.7,,59.4,333,-58,14,1021.62,57.3,0
"2018-06-12 05:32:07+00",7.2,8.2,,59.4,311,-31,12,1021.62,57.2,0
"2018-06-12 05:37:07+00",6.7,7.7,,59.5,288,-58,6,1021.66,57.1,0
"2018-06-12 05:42:07+00",8.2,9.2,,59.5,358,-42,3,1021.62,57.1,0
"2018-06-12 05:47:07+00",6.7,7.7,,59.7,291,-28,16,1021.72,57,0
"2018-06-12 05:52:07+00",6.7,7.7,,59.5,294,-7,19,1021.8,56.8,0
"2018-06-12 05:57:07+00",6.5,7.5,,59.7,278,-58,15,1021.73,56.7,0
"2018-06-12 06:02:07+00",6.5,7.5,,59.9,277,-58,9,1021.82,56.6,0
"2018-06-12 06:07:07+00",5.6,6.6,,59.7,244,-33,9,1021.87,56.5,0
"2018-06-12 06:12:07+00",7.5,7.5,,59.5,323,-52,12,1021.85,56.4,0
"2018-06-12 06:17:07+00",7.7,8.7,,59.7,336,-55,12,1021.82,56.4,0
"2018-06-12 06:22:07+00",7.2,8.2,,59.7,310,-46,18,1021.86,56.3,0
"2018-06-12 06:27:07+00",6.8,7.8,,59.5,292,-60,7,1021.79,56.3,0
"2018-06-12 06:32:07+00",7.0,8.0,,59.8,296,-57,14,1021.82,56.4,0
"2018-06-12 06:37:07+00",7.6,8.6,,59.8,335,-54,17,1021.87,56.4,0
"2018-06-12 06:42:07+00",7.7,8.7,,59.6,338,-27,13,1021.82,56.3,0
"2018-06-12 06:47:07+00",7.1,8.1,,59.7,306,-42,21,1021.89,56.3,0
"2018-06-12 06:52:07+00",7.0,7.0,,59.4,303,-60,5,1021.95,56.2,0
"2018-06-12 06:57:07+00",8.0,8.0,,59.6,348,-45,16,1021.91,56.2,0
"2018-06-12 07:02:07+00",8.0,8.0,,59.4,343,-80,7,1021.91,56.2,0
"2018-06-12 07:07:07+00",8.2,9.2,,59.6,357,-79,7,1021.93,56.4,0
"2018-06-12 07:12:07+00",8.1,9.1,,59.6,351,-71,6,1021.87,56.5,0
"2018-06-12 07:17:07+00",7.6,8.6,,59.7,331,-53,13,1021.86,56.6,0
"2018-06-12 07:22:07+00",7.0,7.0,,59.6,296,-75,5,1021.86,56.7,0
"2018-06-12 07:27:07+00",5.9,6.9,,59.5,253,-48,11,1021.99,56.5,0
"2018-06-12 07:32:07+00",7.3,8.3,,59.6,316,-43,15,1022.06,56.4,0
"2018-06-12 07:37:07+00",6.2,6.2,,59.6,268,2,15,1021.96,56.3,0
"2018-06-12 07:42:07+00",6.2,7.2,,59.4,271,11,12,1021.97,56,0
"2018-06-12 07:47:07+00",6.0,7.0,,59.5,263,5,11,1021.91,55.8,0
"2018-06-12 07:52:07+00",7.0,7.0,,59.5,306,23,18,1021.89,55.7,0
"2018-06-12 07:57:07+00",7.7,8.7,,59.7,337,8,16,1021.68,55.6,0
"2018-06-12 08:02:07+00",7.8,8.8,,59.8,341,-25,23,1021.67,55.7,0
"2018-06-12 08:07:07+00",7.6,8.6,,59.6,332,-60,11,1021.69,55.7,0
"2018-06-12 08:12:07+00",8.2,8.2,,59.7,358,-31,19,1021.71,55.9,0
"2018-06-12 08:17:07+00",8.1,9.1,,59.7,357,-9,20,1021.59,56.1,0
"2018-06-12 08:22:07+00",7.2,7.2,,59.5,316,-4,17,1021.68,56.2,0
"2018-06-12 08:27:07+00",6.8,6.8,,59.4,293,0,14,1021.67,56,0
"2018-06-12 08:32:07+00",6.8,7.8,,59.2,297,9,19,1021.62,56,0
"2018-06-12 08:37:07+00",7.5,7.5,,59.1,328,-16,16,1021.66,55.8,0
"2018-06-12 08:42:07+00",6.5,7.5,,59.2,288,5,17,1021.75,55.7,0
"2018-06-12 08:47:07+00",7.2,7.2,,59.2,311,21,19,1021.72,55.5,0
"2018-06-12 08:52:07+00",7.2,8.2,,59.1,312,46,20,1021.81,55.4,0
"2018-06-12 08:57:07+00",7.1,7.1,,59.1,305,39,22,1021.91,55.3,0
"2018-06-12 09:02:07+00",6.8,6.8,,59.2,291,48,13,1021.98,55.3,0
"2018-06-12 09:07:07+00",7.4,8.4,,59.3,319,50,17,1021.95,55.3,0
"2018-06-12 09:12:07+00",7.5,7.5,,59.4,325,58,18,1022.13,55.2,0
"2018-06-12 09:17:07+00",7.4,8.4,,59.4,321,23,20,1022.07,55.2,0
"2018-06-12 09:22:07+00",6.6,6.6,,59.4,288,13,13,1022.04,55.1,0
"2018-06-12 09:27:07+00",7.1,8.1,,59.4,308,12,18,1022.08,55.1,0
"2018-06-12 09:32:07+00",6.6,6.6,,59.3,288,-1,12,1022.08,55.2,0
"2018-06-12 09:37:07+00",6.6,6.6,,59.6,287,8,17,1022.15,55.2,0
"2018-06-12 09:42:07+00",5.9,5.9,,59.4,255,-7,13,1022.29,55.2,0
"2018-06-12 09:47:07+00",6.2,7.2,,59.4,272,-31,13,1022.24,55.3,0
"2018-06-12 09:52:07+00",6.6,6.6,,59.4,284,-22,16,1022.27,55.3,0
"2018-06-12 09:57:07+00",7.7,8.7,,59.7,339,-14,17,1022.22,55.3,0
"2018-06-12 10:02:07+00",7.0,7.0,,59.8,305,-32,15,1022.28,55.6,0.2
"2018-06-12 10:07:07+00",6.5,7.5,,60,278,-17,16,1022.35,56,1.5
"2018-06-12 10:12:07+00",6.3,7.3,,59.9,275,-28,13,1022.37,56.3,10
"2018-06-12 10:17:07+00",6.5,7.5,,60,284,-18,14,1022.45,56.8,16.6
"2018-06-12 10:22:07+00",7.2,8.2,,60.1,318,-23,10,1022.38,57.5,23.1
"2018-06-12 10:27:07+00",8.2,9.2,,60.2,358,-25,15,1022.19,58.3,30.4
"2018-06-12 10:32:07+00",7.9,8.9,,60.2,349,-25,14,1022.31,59.1,37.2
"2018-06-12 10:37:07+00",8.4,9.4,,60.3,367,6,17,1022.42,59.8,44.9
"2018-06-12 10:42:07+00",7.4,8.4,,60.4,320,1,14,1022.35,60.4,53.9
"2018-06-12 10:47:07+00",8.8,9.8,,60.4,394,1,9,1022.37,61,63.1
"2018-06-12 10:52:07+00",8.3,10.3,,60.5,368,-26,5,1022.35,61.3,73.9
"2018-06-12 10:57:07+00",8.7,10.7,,60.5,392,4,9,1022.39,61.5,84.1
"2018-06-12 11:02:07+00",9.1,10.1,,60.6,404,-36,0,1022.52,61.7,80.5
"2018-06-12 11:07:07+00",8.0,9.0,,60.7,352,-5,5,1022.65,61.8,105.2
"2018-06-12 11:12:07+00",7.7,8.7,,60.8,343,-2,9,1022.77,62.4,115.2
"2018-06-12 11:17:07+00",8.3,9.3,,60.7,362,60,9,1022.71,62.7,125.8
"2018-06-12 11:22:07+00",8.2,10.2,,60.7,363,10,16,1022.72,62.9,135.7
"2018-06-12 11:27:07+00",8.8,9.8,,60.8,395,3,21,1022.65,63.2,145.6
"2018-06-12 11:32:07+00",9.8,9.8,,60.7,432,36,12,1022.73,63.2,156.2
"2018-06-12 11:37:07+00",9.1,11.1,,60.9,396,-36,11,1022.68,63.4,165.4
"2018-06-12 11:42:07+00",9.5,10.5,,60.8,419,-20,-2,1022.57,63.4,173.3
"2018-06-12 11:47:07+00",9.8,10.8,,60.9,434,-35,10,1022.75,63.2,183.4
"2018-06-12 11:52:07+00",9.8,10.8,,61,439,-6,11,1022.82,63.3,192.2
"2018-06-12 11:57:07+00",10.5,12.5,,61,468,-67,13,1022.82,63.1,200.8
"2018-06-12 12:02:07+00",10.7,12.7,,61,461,-106,-3,1022.82,63.1,211.2
"2018-06-12 12:07:07+00",10.7,11.7,,61.2,476,17,32,1022.84,63.3,219
"2018-06-12 12:12:07+00",11.1,12.1,,60.9,491,29,-4,1022.89,63.2,214.2
"2018-06-12 12:17:07+00",11.8,12.8,,61.1,530,16,6,1022.9,63.4,232.5
"2018-06-12 12:22:07+00",12.5,13.5,,61.2,558,5,26,1022.88,63.7,230.3
"2018-06-12 12:27:07+00",11.7,12.7,,61,520,-19,7,1022.82,63.7,247
"2018-06-12 12:32:07+00",11.3,13.3,,61.3,492,-8,25,1022.9,63.9,246.9
"2018-06-12 12:37:07+00",11.3,12.3,,61.2,497,-46,10,1022.97,64.1,251.9
"2018-06-12 12:42:07+00",11.9,12.9,,61.2,529,5,27,1023.06,64.1,239.2
"2018-06-12 12:47:07+00",12.7,14.7,,61.1,559,77,19,1022.97,64.3,255.4
"2018-06-12 12:52:07+00",12.1,14.1,,61.2,534,28,37,1023.11,64.3,259
"2018-06-12 12:57:07+00",13.2,15.2,,61.2,589,48,11,1023.1,64.4,282.4
"2018-06-12 13:02:07+00",12.9,13.9,,61,576,90,6,1023.13,64.2,287.8
"2018-06-12 13:07:07+00",12.8,15.8,,61.2,562,83,28,1023.07,64.3,299.6
"2018-06-12 13:12:07+00",14.9,16.9,,61.3,661,69,13,1023.11,64.6,306.7
"2018-06-12 13:17:07+00",14.3,16.3,,61.2,626,133,27,1023.13,64.8,315.4
"2018-06-12 13:22:07+00",13.0,14.0,,61.2,579,67,18,1023.23,64.9,323
"2018-06-12 13:27:07+00",13.4,14.4,,61.2,582,138,26,1023.28,64.9,323.1
"2018-06-12 13:32:07+00",12.1,14.1,,61.6,538,10,24,1023.25,65.5,332.4
"2018-06-12 13:37:07+00",12.6,13.6,,61.6,552,85,13,1023.2,65.3,333.3
"2018-06-12 13:42:07+00",12.0,14.0,,61.7,535,-42,12,1023.25,64.9,350.5
"2018-06-12 13:47:07+00",9.7,11.7,,61.8,437,-38,41,1023.38,65.1,361.7
"2018-06-12 13:52:07+00",11.8,13.8,,61.5,525,-59,-10,1023.33,64.8,371.9
"2018-06-12 13:57:07+00",12.7,13.7,,61.7,564,44,3,1023.33,65.3,370.1
"2018-06-12 14:02:07+00",11.9,13.9,,61.7,524,61,16,1023.47,65.3,383.4
"2018-06-12 14:07:07+00",12.9,13.9,,61.7,569,-63,-3,1023.55,65.2,402.6
"2018-06-12 14:12:07+00",10.9,11.9,,61.7,491,-26,16,1023.57,65.2,413.4
"2018-06-12 14:17:07+00",9.6,11.6,,61.9,430,10,18,1023.79,65.6,414.7
"2018-06-12 14:22:07+00",11.6,13.6,,61.7,518,-6,3,1023.79,65.8,426.3
"2018-06-12 14:27:07+00",10.2,12.2,,61.8,441,-86,3,1023.97,65.4,408.9
"2018-06-12 14:32:07+00",9.3,10.3,,61.9,398,-102,16,1024.1,65.2,430.2
"2018-06-12 14:37:07+00",10.2,11.2,,62,448,-58,-1,1024.06,65.3,415.7
"2018-06-12 14:42:07+00",9.5,11.5,,61.9,392,-125,-12,1024.12,65.2,447.9
"2018-06-12 14:47:07+00",9.2,11.2,,61.9,311,-245,-12,1024.25,65.3,461.5
"2018-06-12 14:52:07+00",10.4,13.4,,61.9,398,-204,2,1024.25,65.4,469.4
"2018-06-12 14:57:07+00",11.7,12.7,,61.7,464,-228,-7,1024.23,65.2,473
"2018-06-12 15:02:07+00",10.7,11.7,,61.5,419,-209,-37,1024.21,64.7,479.5
"2018-06-12 15:07:07+00",11.6,13.6,,61.9,481,-170,17,1024.21,65,487.8
"2018-06-12 15:12:07+00",11.3,12.3,,61.6,412,-253,-23,1024.23,64.9,492.7
"2018-06-12 15:17:07+00",10.7,13.7,,61.7,349,-315,-40,1024.28,64.9,495.6
"2018-06-12 15:22:07+00",9.8,11.8,,61.9,344,-257,5,1024.23,65,492.5
"2018-06-12 15:27:07+00",9.5,12.5,,62.2,366,-207,21,1024.23,65.3,495.1
"2018-06-12 15:32:07+00",10.6,12.6,,62,349,-300,-17,1024.15,65.1,506.4
"2018-06-12 15:37:07+00",9.2,11.2,,62,334,-223,6,1024.22,65.3,514.3
"2018-06-12 15:42:07+00",9.6,10.6,,62,389,-175,17,1024.17,65.5,506.3
"2018-06-12 15:47:07+00",9.4,12.4,,62.1,351,-209,5,1024.32,65.5,515.5
"2018-06-12 15:52:07+00",8.5,10.5,,62.1,337,-160,49,1024.36,65.7,519.2
"2018-06-12 15:57:07+00",7.8,9.8,,62.5,198,-273,-11,1024.4,66.1,526.9
"2018-06-12 16:02:07+00",8.2,9.2,,62.6,151,-316,-11,1024.34,65.9,494.1
"2018-06-12 16:07:07+00",8.7,10.7,,62.9,228,-295,-2,1024.26,65.8,525.6
"2018-06-12 16:12:07+00",10.2,12.2,,62.8,271,-353,-12,1024.31,65.8,525.7
"2018-06-12 16:17:07+00",9.8,10.8,,62.6,302,-309,-28,1024.39,65.9,535.5
"2018-06-12 16:22:07+00",9.0,10.0,,62.8,263,-287,-24,1024.41,66.1,542.6
"2018-06-12 16:27:07+00",7.7,8.7,,62.9,248,-220,-4,1024.5,66.1,547.3
"2018-06-12 16:32:07+00",9.0,10.0,,62.9,228,-313,1,1024.52,66.3,555.5
"2018-06-12 16:37:07+00",6.9,8.9,,63,132,-254,8,1024.49,66.2,555.9
"2018-06-12 16:42:07+00",8.6,9.6,,63,223,-295,-24,1024.4,66.2,560.2
"2018-06-12 16:47:07+00",9.6,12.6,,63.1,332,-241,13,1024.29,66.4,562.1
"2018-06-12 16:52:07+00",10.4,12.4,,63,418,-188,-17,1024.28,66.5,489.2
"2018-06-12 16:57:07+00",8.3,10.3,,63,324,-169,-4,1024.2,66.8,553.4
"2018-06-12 17:02:07+00",8.6,11.6,,63,260,-238,30,1024.13,66.7,560.4
"2018-06-12 17:07:07+00",11.2,12.2,,63,382,-302,2,1024.01,66.6,573.3
"2018-06-12 17:12:07+00",10.3,12.3,,62.9,342,-299,12,1024.05,66.5,576.7
"2018-06-12 17:17:07+00",10.1,12.1,,62.8,385,-215,-32,1023.98,66.7,573.7
"2018-06-12 17:22:07+00",10.4,12.4,,63.2,412,-195,26,1023.86,66.7,576.2
"2018-06-12 17:27:07+00",10.5,12.5,,63.2,376,-262,6,1023.85,66.7,577
"2018-06-12 17:32:07+00",10.2,13.2,,63.4,326,-303,52,1023.63,66.9,570.5
"2018-06-12 17:37:07+00",11.2,12.2,,63.2,409,-258,26,1023.54,67.2,577.7
"2018-06-12 17:42:07+00",10.8,11.8,,63,432,-214,-7,1023.45,66.9,578.9
"2018-06-12 17:47:07+00",11.5,12.5,,63.1,435,-248,-7,1023.47,66.6,579.3
"2018-06-12 17:52:07+00",9.7,11.7,,63.2,334,-238,6,1023.41,66.8,588.5
"2018-06-12 17:57:07+00",9.9,10.9,,63.7,193,-382,-2,1023.56,66.6,590.4
"2018-06-12 18:02:07+00",11.9,13.9,,63.6,397,-332,-7,1023.39,66.9,586.3
"2018-06-12 18:07:07+00",10.5,12.5,,63.7,279,-349,2,1023.41,66.8,582
"2018-06-12 18:12:07+00",11.3,14.3,,63.7,344,-351,-12,1023.24,66.5,582.6
"2018-06-12 18:17:07+00",9.8,11.8,,63.7,282,-318,-26,1023.26,66.6,566.3
"2018-06-12 18:22:07+00",11.4,14.4,,63.6,200,-453,-30,1023.24,66.5,548
"2018-06-12 18:27:07+00",11.2,13.2,,63.8,226,-425,-40,1023.16,66.3,551.5
"2018-06-12 18:32:07+00",12.9,13.9,,63.7,315,-459,-38,1023.11,66.3,559.7
"2018-06-12 18:37:07+00",11.7,13.7,,63.9,320,-387,-11,1023.15,66.6,558.8
"2018-06-12 18:42:07+00",11.5,13.5,,64,209,-460,5,1023.06,66.6,551.5
"2018-06-12 18:47:07+00",12.5,14.5,,63.7,227,-486,-30,1022.88,66.4,555.7
"2018-06-12 18:52:07+00",11.9,14.9,,63.9,262,-444,-9,1022.79,66.3,558.3
"2018-06-12 18:57:07+00",13.4,15.4,,64.2,280,-507,-32,1022.65,66.9,547.9
"2018-06-12 19:02:07+00",11.6,13.6,,64.4,146,-472,8,1022.71,67,530.8
"2018-06-12 19:07:07+00",13.1,15.1,,64.3,266,-503,-21,1022.74,66.9,528.8
"2018-06-12 19:12:07+00",12.1,13.1,,64.3,171,-492,-22,1022.79,66.8,514.8
"2018-06-12 19:17:07+00",9.8,11.8,,64.9,92,-405,33,1022.77,67.1,514.9
"2018-06-12 19:22:07+00",12.3,14.3,,64.4,260,-448,1,1022.73,67,506.7
"2018-06-12 19:27:07+00",10.5,13.5,,64.7,85,-437,0,1022.72,67.2,498.9
"2018-06-12 19:32:07+00",10.7,15.7,,65,79,-449,23,1022.67,67.1,489.9
"2018-06-12 19:37:07+00",8.3,14.3,,65.1,30,-335,18,1022.76,67,478.6
"2018-06-12 19:42:07+00",13.0,15.0,,64.5,117,-543,-35,1022.74,66.8,473.7
"2018-06-12 19:47:07+00",12.5,14.5,,64.8,153,-499,4,1022.67,67,463.5
"2018-06-12 19:52:07+00",12.5,14.5,,64.6,91,-525,-20,1022.64,67,452.9
"2018-06-12 19:57:07+00",11.9,13.9,,64.6,94,-498,-13,1022.62,66.9,443
"2018-06-12 20:02:07+00",11.3,15.3,,64.8,62,-484,-15,1022.51,67.1,434.9
"2018-06-12 20:07:07+00",15.6,17.6,,64.6,169,-648,-41,1022.36,66.9,424.6
"2018-06-12 20:12:07+00",12.3,15.3,,64.7,153,-512,14,1022.37,66.8,415.3
"2018-06-12 20:17:07+00",13.1,16.1,,65,111,-539,-21,1022.4,66.8,405.3
"2018-06-12 20:22:07+00",12.9,14.9,,64.8,79,-545,-9,1022.25,66.9,396.8
"2018-06-12 20:27:07+00",14.6,18.6,,65,132,-598,-16,1022.21,66.9,300.9
"2018-06-12 20:32:07+00",13.5,16.5,,64.6,127,-558,4,1022.21,66.6,19.6
"2018-06-12 20:37:07+00",16.4,18.4,,64.4,139,-688,-37,1022.06,66.4,11.8
"2018-06-12 20:42:07+00",13.6,16.6,,64.7,84,-574,-34,1022.05,66.5,12
"2018-06-12 20:47:07+00",14.5,17.5,,64.7,123,-608,-29,1022.07,66.5,12.8
"2018-06-12 20:52:07+00",13.6,15.6,,64.8,59,-583,-24,1021.88,66.5,10.4
"2018-06-12 20:57:07+00",14.6,16.6,,64.5,112,-608,-36,1021.9,66.2,75.7
"2018-06-12 21:02:07+00",13.6,15.6,,64.6,68,-583,-26,1021.88,66.4,307.1
"2018-06-12 21:07:07+00",9.7,12.7,,64.6,45,-400,7,1021.82,66.2,300.6
"2018-06-12 21:12:07+00",10.6,13.6,,64.6,123,-420,31,1021.75,66.4,293.6
"2018-06-12 21:17:07+00",12.6,14.6,,64.5,131,-512,-24,1021.63,66.1,45.4
"2018-06-12 21:22:07+00",11.6,13.6,,64.4,39,-486,-12,1021.71,66.2,74.3
"2018-06-12 21:27:07+00",11.9,13.9,,64.5,127,-480,0,1021.57,66.1,260.4
"2018-06-12 21:32:07+00",11.7,12.7,,64.5,131,-467,-17,1021.43,66.1,253.7
"2018-06-12 21:37:07+00",10.9,13.9,,64.5,103,-449,-19,1021.49,66.1,243.9
"2018-06-12 21:42:07+00",10.7,13.7,,64.6,51,-442,-27,1021.47,65.9,235.9
"2018-06-12 21:47:07+00",10.3,13.3,,64.4,94,-431,-26,1021.36,65.6,227.7
"2018-06-12 21:52:07+00",8.9,10.9,,64.5,81,-324,53,1021.38,65.7,217.1
"2018-06-12 21:57:07+00",10.0,12.0,,64.4,84,-410,-2,1021.24,65.7,209.9
"2018-06-12 22:02:07+00",11.3,13.3,,64.3,45,-478,-27,1021.16,65.7,200.5
"2018-06-12 22:07:07+00",10.7,12.7,,64.1,110,-441,2,1021.06,65.5,193.2
"2018-06-12 22:12:07+00",11.0,13.0,,64.1,75,-452,-11,1020.97,65.3,185.9
"2018-06-12 22:17:07+00",11.6,13.6,,64.2,33,-495,-14,1020.93,65.2,157.5
"2018-06-12 22:22:07+00",12.1,15.1,,64,54,-513,-23,1020.81,64.9,167.5
"2018-06-12 22:27:07+00",10.7,13.7,,64.3,13,-446,-27,1020.8,65,150.9
"2018-06-12 22:32:07+00",9.9,11.9,,64.4,35,-410,1,1020.82,65,136.7
"2018-06-12 22:37:07+00",9.5,12.5,,64.5,23,-400,-13,1020.78,65.1,127.7
"2018-06-12 22:42:07+00",9.6,12.6,,64.5,11,-400,7,1020.71,65,115
"2018-06-12 22:47:07+00",10.3,13.3,,64.2,23,-452,-12,1020.7,64.7,98.7
"2018-06-12 22:52:07+00",10.1,12.1,,64,-25,-432,-5,1020.75,64.4,1.5
"2018-06-12 22:57:07+00",7.6,9.6,,63.8,-13,-323,-4,1020.61,64,3.8
"2018-06-12 23:02:07+00",7.9,9.9,,63.7,-32,-315,-27,1020.59,63.8,5.3
"2018-06-12 23:07:07+00",10.2,13.2,,63.7,-26,-425,-33,1020.5,63.9,8.9
"2018-06-12 23:12:07+00",6.6,9.6,,63.9,-58,-271,23,1020.48,64.1,5.5
"2018-06-12 23:17:07+00",9.8,12.8,,63.9,-90,-409,-8,1020.55,64.2,3.2
"2018-06-12 23:22:07+00",8.7,10.7,,63.9,-59,-362,-9,1020.55,64.1,5.7
"2018-06-12 23:27:07+00",9.6,12.6,,63.8,-15,-392,-16,1020.42,64,12.4
"2018-06-12 23:32:07+00",7.6,9.6,,63.9,-41,-308,5,1020.41,64,18
"2018-06-12 23:37:07+00",7.1,10.1,,63.9,-37,-289,7,1020.32,64.1,27.2
"2018-06-12 23:42:07+00",10.8,13.8,,63.9,12,-455,-16,1020.19,64.1,12.8
"2018-06-12 23:47:07+00",10.7,12.7,,63.8,27,-461,-16,1020.18,63.9,0.9
"2018-06-12 23:52:07+00",10.2,11.2,,63.6,-8,-432,-18,1020.2,63.7,0
"2018-06-12 23:57:07+00",11.5,14.5,,63.6,18,-488,-18,1020.25,63.6,0
